"Pseudo-MPEC" for or02068

Created 2023 Jan 27 16:22:28 UT using Find_Orb

Click here for an explanation of pseudo-MPECs

 
 Astrometry: 
     or02068*KC2023 01 22M=\SSHVEAstrometry/Gn`Q3U;#HUredacted;[c@WJY')bdV%m2J43
     or02068 KC2023 01 22ZoiclickY$jM?hereA:t6;R_J3jj'$K0f6@Epg1*\d;jkZefor,.J43
     or02068 KC2023 01 22!`;%sqI=xMibmY]lOJ$Za$xIi64ODjP+_/XWYP/,sexplanationJ43

Station data:
(J43) Oukaïmeden Observatory, Marrakech  (N31.206437 W7.866460)  Morocco.
   Observer C. Rinner. Measurers C. Rinner, M. Ory. 0.5-m f/3 reflector + CCD.

Orbital elements:  or02068
   Perigee 2023 Jan 19.91630 +/- 69.4 TT = 21:59:28 (JD 2459964.41630)
Epoch 2023 Jan 22.0 TT = JDT 2459966.5                           AutoNEOCP
q  1301.94408 +/- 5.41e+7           (J2000 equator)
H   32.17 G 0.15                    Peri.  247.76381 +/- 60
                                    Node   215.96908 +/- 29
e   1.0171297 +/- 0.214             Incl.  159.26345 +/- 50
From 3 observations 2023 Jan. 22 (21.5 min); mean residual 0".08
LAUNCH at 19 Jan 2023 22:06:13.95 lat +4.59168 lon E113.17793
Residuals in arcseconds: 
230122 J43  .06-  .05+    230122 J43  .13+  .10-    230122 J43  .06-  .05+    

Ephemerides (geocentric):
Date (UTC) HH   RA             Dec           delta  r     elong  mag " sig PA
---- --------  ------------   ------------  ------ ------ -----  --- --------
2023 01 27 16  10 42 55.760   +17 15 41.89  .01177 0.9950 150.3 23.8  57d 172
2023 01 27 17  10 42 54.647   +17 15 44.02  .01183 0.9950 150.4 23.9  57d 172
2023 01 27 18  10 42 53.538   +17 15 46.13  .01189 0.9951 150.4 23.9  58d 172
2023 01 27 19  10 42 52.432   +17 15 48.21  .01195 0.9951 150.4 23.9  58d 172
2023 01 27 20  10 42 51.330   +17 15 50.28  .01201 0.9952 150.5 23.9  58d 172
2023 01 27 21  10 42 50.231   +17 15 52.32  .01207 0.9953 150.5 23.9  58d 172
2023 01 27 22  10 42 49.136   +17 15 54.34  .01212 0.9953 150.6 23.9  58d 172
2023 01 27 23  10 42 48.044   +17 15 56.34  .01218 0.9954 150.6 23.9  58d 172
2023 01 28 00  10 42 46.955   +17 15 58.32  .01224 0.9954 150.7 23.9  58d 172
2023 01 28 01  10 42 45.869   +17 16 00.28  .01230 0.9955 150.7 23.9  58d 172
2023 01 28 02  10 42 44.786   +17 16 02.22  .01236 0.9956 150.8 23.9  58d 172
2023 01 28 03  10 42 43.707   +17 16 04.14  .01242 0.9956 150.8 23.9  58d 172
2023 01 28 04  10 42 42.630   +17 16 06.04  .01248 0.9957 150.8 24.0  58d 172
2023 01 28 05  10 42 41.556   +17 16 07.92  .01253 0.9958 150.9 24.0  58d 172
2023 01 28 06  10 42 40.486   +17 16 09.78  .01259 0.9958 150.9 24.0  58d 172
2023 01 28 07  10 42 39.417   +17 16 11.63  .01265 0.9959 151.0 24.0  58d 172
2023 01 28 08  10 42 38.352   +17 16 13.45  .01271 0.9959 151.0 24.0  58d 172
2023 01 28 09  10 42 37.289   +17 16 15.25  .01277 0.9960 151.1 24.0  58d 172
2023 01 28 10  10 42 36.229   +17 16 17.04  .01283 0.9961 151.1 24.0  58d 172
2023 01 28 11  10 42 35.171   +17 16 18.81  .01288 0.9961 151.2 24.0  58d 172
2023 01 28 12  10 42 34.116   +17 16 20.56  .01294 0.9962 151.2 24.0  58d 172
2023 01 28 13  10 42 33.063   +17 16 22.29  .01300 0.9962 151.2 24.0  58d 172
2023 01 28 14  10 42 32.013   +17 16 24.01  .01306 0.9963 151.3 24.0  58d 172
2023 01 28 15  10 42 30.965   +17 16 25.71  .01312 0.9964 151.3 24.1  58d 172
2023 01 28 16  10 42 29.919   +17 16 27.39  .01318 0.9964 151.4 24.1  58d 172
2023 01 28 17  10 42 28.875   +17 16 29.05  .01324 0.9965 151.4 24.1  58d 172
2023 01 28 18  10 42 27.834   +17 16 30.70  .01329 0.9965 151.5 24.1  58d 172
2023 01 28 19  10 42 26.794   +17 16 32.33  .01335 0.9966 151.5 24.1  58d 172
2023 01 28 20  10 42 25.757   +17 16 33.94  .01341 0.9967 151.6 24.1  59d 172
2023 01 28 21  10 42 24.722   +17 16 35.54  .01347 0.9967 151.6 24.1  59d 172
2023 01 28 22  10 42 23.689   +17 16 37.12  .01353 0.9968 151.7 24.1  59d 172
2023 01 28 23  10 42 22.657   +17 16 38.68  .01359 0.9969 151.7 24.1  59d 172
2023 01 29 00  10 42 21.628   +17 16 40.23  .01365 0.9969 151.7 24.1  59d 172
2023 01 29 01  10 42 20.600   +17 16 41.76  .01370 0.9970 151.8 24.1  59d 172
2023 01 29 02  10 42 19.574   +17 16 43.28  .01376 0.9970 151.8 24.1  59d 172
2023 01 29 03  10 42 18.550   +17 16 44.78  .01382 0.9971 151.9 24.2  59d 172
2023 01 29 04  10 42 17.527   +17 16 46.27  .01388 0.9972 151.9 24.2  59d 172
2023 01 29 05  10 42 16.506   +17 16 47.74  .01394 0.9972 152.0 24.2  59d 172
2023 01 29 06  10 42 15.487   +17 16 49.20  .01400 0.9973 152.0 24.2  59d 172
2023 01 29 07  10 42 14.470   +17 16 50.64  .01405 0.9973 152.0 24.2  59d 172
2023 01 29 08  10 42 13.453   +17 16 52.07  .01411 0.9974 152.1 24.2  59d 172
2023 01 29 09  10 42 12.439   +17 16 53.48  .01417 0.9975 152.1 24.2  59d 172
2023 01 29 10  10 42 11.425   +17 16 54.88  .01423 0.9975 152.2 24.2  59d 172
2023 01 29 11  10 42 10.414   +17 16 56.26  .01429 0.9976 152.2 24.2  59d 172
2023 01 29 12  10 42 09.403   +17 16 57.63  .01435 0.9977 152.3 24.2  59d 172
2023 01 29 13  10 42 08.394   +17 16 58.99  .01441 0.9977 152.3 24.2  59d 172
2023 01 29 14  10 42 07.386   +17 17 00.33  .01446 0.9978 152.4 24.2  59d 172
2023 01 29 15  10 42 06.379   +17 17 01.66  .01452 0.9978 152.4 24.2  59d 172